Location: Unspecified
(0.0000°N, 0.0000°E)
Time: 15:16:57
(UTC+00:00)

FENGYUN 1C DEB - Pass Details

Date: 21 February 2026
Orbit: 814 x 927 km, 98.2° (Epoch: 15 July)

Event Time Altitude Azimuth Distance (km) Brightness Sun altitude
Rises 18:54:23 0° 160° (SSE) 3,407 ? -10.0°
Reaches altitude 10° 18:56:47 10° 155° (SSE) 2,480 ? -10.6°
Maximum altitude 19:02:10 56° 78° (ENE) 1,019 ? -12.0°
Drops below altitude 10° 19:07:38 10° 1° (N) 2,515 ? -13.3°
Sets 19:10:05 0° 357° (N) 3,458 ? -13.9°
